Flag for Albania Weather past 2 weeks in Tirana, Albania

Now
93 °F

Passing clouds.


Feels Like: 94 °F
Forecast: 70 / 100 °F
Wind: 3 mph from North

Location: Tirana Airport

Current Time: Jul 31, 2015 at 12:11:43 PM

Latest Report: Jul 31, 2015 at 11:20 AM


Visibility: N/A

Pressure: 29.80 "Hg

Humidity: 36%

Dew point: 63 °F

Location of TiranaLocation

Historic Weather in Tirana — Graph

°F

Tirana temperature yesterday

Maximum temperature yesterday: 97 °F (at 12:50 PM)
Minimum temperature yesterday: 68 °F (at 4:20 AM)
Average temperature yesterday: 83 °F

Past Weeks' High & Low Weather Summary

 TemperatureHumidityPressure
High104 °F (Jul 21, 2:50 PM)89% (Jul 20, 11:50 PM)30.07 "Hg (Jul 20, 11:50 PM)
Low66 °F (Jul 17, 5:50 AM)22% (Jul 17, 4:20 PM)29.71 "Hg (Jul 27, 5:20 PM)
Average84 °F57%29.84 "Hg
* Reported Jul 16 10:20 AM — Jul 31 10:50 AM, Tirana, Weather by CustomWeather, © 2015

Note: Actual official high and low records may vary slightly from our data, if they occured in-between our weather recording intervals... More about our weather records

Advertising

Tirana weather history for previous 24 hours

 ConditionsComfort  
Time TempWeatherWind HumidityBarometerVisibility
10:50 AM
Fri, Jul 31
93 °FPassing clouds.3 mph36%29.80 "HgN/A
10:20 AM91 °FSunny.2 mph38%29.80 "Hg10 mi
9:20 AM86 °FPassing clouds.3 mph49%29.80 "HgN/A
8:50 AM84 °FSunny.6 mph43%29.80 "Hg10 mi
8:20 AM82 °FSunny.7 mph42%29.80 "Hg10 mi
7:50 AM81 °FSunny.6 mph48%29.80 "Hg10 mi
7:20 AM77 °FPassing clouds.3 mph61%29.80 "HgN/A
6:50 AM73 °FSunny.6 mph74%29.80 "Hg10 mi
6:20 AM72 °FClear.6 mph73%29.80 "Hg10 mi
5:50 AM72 °FClear.7 mph73%29.77 "Hg10 mi
5:20 AM70 °FPassing clouds.6 mph83%29.77 "HgN/A
4:50 AM70 °FClear.2 mph83%29.77 "Hg10 mi
4:20 AM72 °FPassing clouds.3 mph73%29.77 "HgN/A
3:50 AM70 °FClear.No wind83%29.77 "Hg10 mi
3:20 AM73 °FPassing clouds.3 mph74%29.77 "HgN/A
2:50 AM72 °FClear.2 mph78%29.77 "Hg10 mi
2:20 AM72 °FClear.3 mph73%29.77 "Hg10 mi
1:50 AM72 °FClear.3 mph78%29.77 "Hg10 mi
1:20 AM72 °FClear.5 mph78%29.80 "Hg10 mi
12:50 AM73 °FClear.3 mph78%29.80 "Hg10 mi
12:20 AM72 °FClear.3 mph83%29.80 "Hg10 mi
11:20 PM
Thu, Jul 30
73 °FClear.2 mph83%29.80 "Hg10 mi
10:50 PM73 °FClear.2 mph83%29.80 "Hg10 mi
10:20 PM75 °FClear.No wind78%29.80 "Hg10 mi
9:50 PM77 °FClear.2 mph74%29.77 "Hg10 mi
9:20 PM77 °FClear.No wind74%29.77 "Hg10 mi
8:50 PM77 °FSunny.2 mph69%29.77 "Hg10 mi
8:20 PM81 °FSunny.2 mph66%29.77 "Hg10 mi
7:50 PM84 °FSunny.3 mph55%29.77 "Hg10 mi
7:20 PM88 °FSunny.5 mph52%29.77 "Hg10 mi
6:50 PM90 °FSunny.7 mph49%29.77 "Hg10 mi
6:20 PM91 °FSunny.7 mph46%29.77 "Hg10 mi
5:50 PM91 °FSunny.9 mph46%29.77 "Hg10 mi
5:20 PM93 °FSunny.10 mph44%29.77 "Hg10 mi
4:50 PM93 °FSunny.14 mph41%29.77 "Hg10 mi
4:20 PM93 °FSunny.13 mph44%29.77 "Hg10 mi
3:50 PM95 °FSunny.14 mph36%29.77 "Hg10 mi
3:20 PM95 °FSunny.14 mph36%29.77 "Hg10 mi
2:50 PM97 °FPassing clouds.10 mph32%29.77 "HgN/A
2:20 PM97 °FPassing clouds.10 mph27%29.77 "HgN/A
1:50 PM97 °FPassing clouds.8 mph27%29.77 "HgN/A
1:20 PM97 °FSunny.9 mph25%29.77 "Hg10 mi
12:50 PM97 °FSunny.9 mph27%29.77 "Hg10 mi
12:20 PM93 °FPassing clouds.8 mph32%29.77 "HgN/A
Weather by CustomWeather, © 2015

See weather overviewHow to use our weather pages